| time (UTC) | temp F | wind direction | speed knots | gust knots | rain 1hr in | rain 24hr in | rain mn in | humidity % | barometer mb |
| 20260507093353 | 57 | 61 | 2.6 | 6.1 | 0.00 | 0.00 | 0.00 | 44 | 1013.7 |
| 20260507092352 | 56 | 52 | 5.2 | 9.6 | 0.00 | 0.00 | 0.00 | 44 | 1013.6 |
| 20260507091409 | 56 | 2 | 3.5 | 10.4 | 0.00 | 0.00 | 0.00 | 45 | 1013.6 |
| 20260507090347 | 57 | 65 | 3.5 | 7.8 | 0.00 | 0.00 | 0.00 | 49 | 1013.6 |
| 20260507085345 | 57 | 58 | 3.5 | 7.0 | 0.00 | 0.00 | 0.00 | 48 | 1013.6 |
| 20260507084342 | 57 | 38 | 3.5 | 7.0 | 0.00 | 0.00 | 0.00 | 49 | 1013.5 |
| 20260507083340 | 58 | 74 | 3.5 | 7.8 | 0.00 | 0.00 | 0.00 | 50 | 1013.5 |
| 20260507082340 | 58 | 71 | 3.5 | 7.0 | 0.00 | 0.00 | 0.00 | 53 | 1013.5 |
| 20260507081338 | 57 | 81 | 3.5 | 7.8 | 0.00 | 0.00 | 0.00 | 54 | 1013.5 |
| 20260507080355 | 56 | 90 | 3.5 | 7.8 | 0.00 | 0.00 | 0.00 | 55 | 1013.5 |
| 20260507075333 | 55 | 56 | 3.5 | 8.7 | 0.00 | 0.00 | 0.00 | 58 | 1013.5 |
| 20260507074330 | 54 | 80 | 3.5 | 7.8 | 0.00 | 0.00 | 0.00 | 60 | 1013.6 |
| 20260507073329 | 53 | 49 | 1.7 | 6.1 | 0.00 | 0.00 | 0.00 | 62 | 1013.6 |
| 20260507072327 | 53 | 49 | 1.7 | 6.1 | 0.00 | 0.00 | 0.00 | 62 | 1013.6 |
| 20260507071405 | 51 | 72 | 3.5 | 6.1 | 0.00 | 0.00 | 0.00 | 65 | 1013.6 |
| 20260507070323 | 50 | 70 | 3.5 | 6.1 | 0.00 | 0.00 | 0.00 | 66 | 1013.6 |
| 20260507065340 | 49 | 64 | 3.5 | 5.2 | 0.00 | 0.00 | 0.00 | 68 | 1013.7 |
| 20260507064318 | 49 | 60 | 2.6 | 5.2 | 0.00 | 0.00 | 0.00 | 67 | 1013.7 |
| 20260507063317 | 49 | 65 | 1.7 | 4.3 | 0.00 | 0.00 | 0.00 | 68 | 1013.8 |
| 20260507062317 | 48 | 74 | 2.6 | 5.2 | 0.00 | 0.00 | 0.00 | 67 | 1013.7 |
| 20260507061313 | 48 | 62 | 3.5 | 7.0 | 0.00 | 0.00 | 0.00 | 67 | 1013.6 |
| 20260507060312 | 48 | 65 | 3.5 | 5.2 | 0.00 | 0.00 | 0.00 | 68 | 1013.5 |
| 20260507055310 | 47 | 64 | 3.5 | 5.2 | 0.00 | 0.00 | 0.00 | 68 | 1013.4 |
| 20260507054307 | 47 | 66 | 2.6 | 4.3 | 0.00 | 0.00 | 0.00 | 67 | 1013.5 |
| 20260507053306 | 48 | 70 | 3.5 | 5.2 | 0.00 | 0.00 | 0.00 | 67 | 1013.4 |
| 20260507052306 | 47 | 66 | 3.5 | 6.1 | 0.00 | 0.00 | 0.00 | 69 | 1013.3 |
| 20260507051301 | 46 | 62 | 3.5 | 6.1 | 0.00 | 0.00 | 0.00 | 70 | 1013.3 |
| 20260507050319 | 45 | 63 | 3.5 | 5.2 | 0.00 | 0.00 | 0.00 | 70 | 1013.2 |
| 20260507045257 | 44 | 67 | 3.5 | 5.2 | 0.00 | 0.00 | 0.00 | 71 | 1013.3 |
| 20260507044255 | 44 | 67 | 2.6 | 5.2 | 0.00 | 0.00 | 0.00 | 71 | 1013.2 |
| 20260507043252 | 43 | 60 | 3.5 | 7.0 | 0.00 | 0.00 | 0.00 | 72 | 1013.1 |
| 20260507042350 | 42 | 60 | 3.5 | 5.2 | 0.00 | 0.00 | 0.00 | 72 | 1013.1 |
| 20260507041249 | 41 | 62 | 2.6 | 5.2 | 0.00 | 0.00 | 0.00 | 73 | 1013.0 |
| 20260507040248 | 41 | 70 | 1.7 | 3.5 | 0.00 | 0.00 | 0.00 | 73 | 1012.8 |
| 20260507035245 | 41 | 68 | 1.7 | 3.5 | 0.00 | 0.00 | 0.00 | 73 | 1012.7 |
| 20260507034244 | 41 | 63 | 2.6 | 5.2 | 0.00 | 0.00 | 0.00 | 72 | 1012.7 |
| 20260507033241 | 41 | 65 | 2.6 | 4.3 | 0.00 | 0.00 | 0.00 | 72 | 1012.7 |
| 20260507032259 | 41 | 65 | 2.6 | 3.5 | 0.00 | 0.00 | 0.00 | 72 | 1012.6 |
| 20260507031237 | 41 | 66 | 2.6 | 3.5 | 0.00 | 0.00 | 0.00 | 72 | 1012.5 |
| 20260507030235 | 41 | 65 | 2.6 | 4.3 | 0.00 | 0.00 | 0.00 | 72 | 1012.5 |
| 20260507025233 | 41 | 64 | 2.6 | 4.3 | 0.00 | 0.00 | 0.00 | 72 | 1012.6 |
| 20260507024231 | 41 | 63 | 3.5 | 5.2 | 0.00 | 0.00 | 0.00 | 72 | 1012.6 |
| 20260507023230 | 41 | 64 | 2.6 | 3.5 | 0.00 | 0.00 | 0.00 | 71 | 1012.7 |
| 20260507022227 | 41 | 63 | 3.5 | 5.2 | 0.00 | 0.00 | 0.00 | 71 | 1012.7 |
| 20260507021225 | 41 | 63 | 2.6 | 3.5 | 0.00 | 0.00 | 0.00 | 71 | 1012.7 |
| 20260507020242 | 41 | 62 | 3.5 | 5.2 | 0.00 | 0.00 | 0.00 | 71 | 1012.6 |
| 20260507015221 | 41 | 62 | 3.5 | 5.2 | 0.00 | 0.00 | 0.00 | 71 | 1012.6 |
| 20260507014219 | 41 | 63 | 2.6 | 4.3 | 0.00 | 0.00 | 0.00 | 71 | 1012.6 |
| 20260507013217 | 41 | 62 | 3.5 | 5.2 | 0.00 | 0.00 | 0.00 | 71 | 1012.6 |
| 20260507012215 | 41 | 64 | 2.6 | 4.3 | 0.00 | 0.00 | 0.00 | 71 | 1012.7 |
| 20260507011212 | 41 | 62 | 2.6 | 5.2 | 0.00 | 0.00 | 0.00 | 71 | 1012.6 |
| 20260507010211 | 41 | 59 | 2.6 | 5.2 | 0.00 | 0.00 | 0.00 | 70 | 1012.6 |
| 20260507005209 | 41 | 65 | 2.6 | 3.5 | 0.00 | 0.00 | 0.00 | 70 | 1012.6 |
| 20260507004207 | 41 | 62 | 2.6 | 4.3 | 0.00 | 0.00 | 0.00 | 70 | 1012.6 |
| 20260507003225 | 41 | 65 | 1.7 | 3.5 | 0.00 | 0.00 | 0.00 | 70 | 1012.6 |
| 20260507002203 | 41 | 65 | 1.7 | 3.5 | 0.00 | 0.00 | 0.00 | 70 | 1012.6 |
| 20260507001201 | 41 | 69 | 2.6 | 4.3 | 0.00 | 0.00 | 0.00 | 70 | 1012.6 |
| 20260507000159 | 42 | 61 | 2.6 | 4.3 | 0.00 | 0.00 | 0.00 | 69 | 1012.6 |
| 20260506235157 | 42 | 61 | 2.6 | 5.2 | 0.00 | 0.00 | 0.00 | 69 | 1012.6 |
| 20260506234155 | 42 | 66 | 2.6 | 4.3 | 0.00 | 0.00 | 0.00 | 68 | 1012.5 |
| 20260506233153 | 42 | 62 | 2.6 | 5.2 | 0.00 | 0.00 | 0.00 | 68 | 1012.5 |
| 20260506232151 | 42 | 64 | 2.6 | 5.2 | 0.00 | 0.00 | 0.00 | 68 | 1012.4 |
| 20260506231150 | 42 | 63 | 3.5 | 6.1 | 0.00 | 0.00 | 0.00 | 68 | 1012.4 |
| 20260506230147 | 42 | 59 | 3.5 | 6.1 | 0.00 | 0.00 | 0.00 | 68 | 1012.5 |
| 20260506225145 | 42 | 59 | 4.3 | 6.1 | 0.00 | 0.00 | 0.00 | 69 | 1012.5 |
| 20260506224143 | 42 | 64 | 3.5 | 6.1 | 0.00 | 0.00 | 0.00 | 69 | 1012.4 |
| 20260506223141 | 43 | 58 | 3.5 | 7.0 | 0.00 | 0.00 | 0.00 | 70 | 1012.3 |
| 20260506222159 | 43 | 67 | 3.5 | 8.7 | 0.00 | 0.00 | 0.00 | 69 | 1012.2 |
| 20260506221137 | 43 | 54 | 4.3 | 8.7 | 0.00 | 0.00 | 0.00 | 69 | 1012.0 |
| 20260506220135 | 43 | 56 | 5.2 | 8.7 | 0.00 | 0.00 | 0.00 | 69 | 1012.1 |
| 20260506215133 | 43 | 60 | 5.2 | 10.4 | 0.00 | 0.00 | 0.00 | 69 | 1012.2 |
| 20260506214151 | 43 | 57 | 4.3 | 7.8 | 0.00 | 0.00 | 0.00 | 68 | 1012.2 |
| 20260506213129 | 43 | 53 | 5.2 | 10.4 | 0.00 | 0.00 | 0.00 | 68 | 1012.1 |
| 20260506212127 | 43 | 54 | 6.1 | 10.4 | 0.00 | 0.00 | 0.00 | 67 | 1012.1 |
| 20260506211124 | 43 | 54 | 5.2 | 10.4 | 0.00 | 0.00 | 0.00 | 67 | 1012.1 |
| 20260506210124 | 43 | 55 | 5.2 | 10.4 | 0.00 | 0.00 | 0.00 | 66 | 1012.0 |
| 20260506205123 | 43 | 56 | 5.2 | 9.6 | 0.00 | 0.00 | 0.00 | 66 | 1012.0 |
| 20260506204119 | 44 | 54 | 5.2 | 9.6 | 0.00 | 0.00 | 0.00 | 65 | 1012.1 |
| 20260506203117 | 44 | 55 | 5.2 | 9.6 | 0.00 | 0.00 | 0.00 | 65 | 1012.2 |
| 20260506202115 | 44 | 56 | 5.2 | 11.3 | 0.00 | 0.00 | 0.00 | 65 | 1012.2 |
| 20260506201113 | 44 | 53 | 5.2 | 7.8 | 0.00 | 0.00 | 0.00 | 64 | 1012.3 |
| 20260506200112 | 44 | 52 | 5.2 | 10.4 | 0.00 | 0.00 | 0.00 | 64 | 1012.3 |
| 20260506195149 | 44 | 52 | 5.2 | 9.6 | 0.00 | 0.00 | 0.00 | 63 | 1012.3 |
| 20260506194107 | 44 | 52 | 5.2 | 8.7 | 0.00 | 0.00 | 0.00 | 62 | 1012.3 |
| 20260506193126 | 44 | 55 | 5.2 | 9.6 | 0.00 | 0.00 | 0.00 | 61 | 1012.2 |
| 20260506192104 | 44 | 53 | 5.2 | 10.4 | 0.00 | 0.00 | 0.00 | 61 | 1012.3 |
| 20260506191101 | 45 | 50 | 4.3 | 9.6 | 0.00 | 0.00 | 0.00 | 60 | 1012.3 |
| 20260506190100 | 45 | 52 | 5.2 | 10.4 | 0.00 | 0.00 | 0.00 | 58 | 1012.3 |
| 20260506185058 | 45 | 57 | 3.5 | 9.6 | 0.00 | 0.00 | 0.00 | 57 | 1012.3 |
| 20260506184114 | 45 | 51 | 5.2 | 12.2 | 0.00 | 0.00 | 0.00 | 56 | 1012.3 |
| 20260506183052 | 46 | 50 | 5.2 | 9.6 | 0.00 | 0.00 | 0.00 | 56 | 1012.3 |
| 20260506182052 | 46 | 51 | 5.2 | 9.6 | 0.00 | 0.00 | 0.00 | 55 | 1012.4 |
| 20260506181129 | 46 | 53 | 5.2 | 10.4 | 0.00 | 0.00 | 0.00 | 55 | 1012.5 |
| 20260506180046 | 46 | 54 | 4.3 | 8.7 | 0.00 | 0.00 | 0.00 | 55 | 1012.5 |
| 20260506175045 | 47 | 53 | 5.2 | 9.6 | 0.00 | 0.00 | 0.00 | 54 | 1012.4 |
| 20260506174044 | 47 | 54 | 4.3 | 7.8 | 0.00 | 0.00 | 0.00 | 55 | 1012.3 |
| 20260506173101 | 47 | 49 | 6.1 | 10.4 | 0.00 | 0.00 | 0.00 | 54 | 1012.4 |
| 20260506172039 | 48 | 51 | 5.2 | 10.4 | 0.00 | 0.00 | 0.00 | 54 | 1012.4 |
| 20260506171056 | 48 | 53 | 5.2 | 10.4 | 0.00 | 0.00 | 0.00 | 54 | 1012.4 |
| 20260506170055 | 48 | 52 | 5.2 | 9.6 | 0.00 | 0.00 | 0.00 | 54 | 1012.4 |
| 20260506165033 | 49 | 52 | 3.5 | 9.6 | 0.00 | 0.00 | 0.00 | 53 | 1012.5 |
| 20260506164031 | 49 | 54 | 4.3 | 8.7 | 0.00 | 0.00 | 0.00 | 54 | 1012.6 |
| 20260506163029 | 50 | 52 | 6.1 | 9.6 | 0.00 | 0.00 | 0.00 | 53 | 1012.7 |
| 20260506162028 | 50 | 59 | 7.0 | 11.3 | 0.00 | 0.00 | 0.00 | 52 | 1012.7 |
| 20260506161046 | 51 | 56 | 6.1 | 9.6 | 0.00 | 0.00 | 0.00 | 52 | 1012.6 |
| 20260506160022 | 51 | 59 | 5.2 | 8.7 | 0.00 | 0.00 | 0.00 | 51 | 1012.6 |
| 20260506155022 | 51 | 55 | 6.1 | 9.6 | 0.00 | 0.00 | 0.00 | 51 | 1012.4 |
| 20260506154019 | 52 | 60 | 5.2 | 8.7 | 0.00 | 0.00 | 0.00 | 50 | 1012.4 |
| 20260506153017 | 52 | 33 | 2.6 | 6.1 | 0.00 | 0.00 | 0.00 | 49 | 1012.5 |
| 20260506152015 | 53 | 19 | 1.7 | 5.2 | 0.00 | 0.00 | 0.00 | 49 | 1012.6 |
| 20260506151014 | 54 | 90 | 1.7 | 5.2 | 0.00 | 0.00 | 0.00 | 51 | 1012.8 |
| 20260506145510 | 54 | 330 | 0.9 | 4.3 | 0.00 | 0.00 | 0.00 | 49 | 1012.8 |
| 20260506144507 | 54 | 205 | 1.7 | 3.5 | 0.00 | 0.00 | 0.00 | 49 | 1012.9 |
| 20260506143506 | 55 | 90 | 1.7 | 5.2 | 0.00 | 0.00 | 0.00 | 47 | 1013.0 |
| 20260506142504 | 54 | 109 | 2.6 | 4.3 | 0.00 | 0.00 | 0.00 | 46 | 1012.9 |
| 20260506141501 | 54 | 101 | 3.5 | 6.1 | 0.00 | 0.00 | 0.00 | 46 | 1013.0 |
| 20260506135959 | 53 | 152 | 2.6 | 5.2 | 0.00 | 0.00 | 0.00 | 49 | 1013.3 |
| 20260506134958 | 53 | 129 | 4.3 | 8.7 | 0.00 | 0.00 | 0.00 | 48 | 1013.4 |
| 20260506133955 | 53 | 105 | 5.2 | 7.8 | 0.00 | 0.00 | 0.00 | 49 | 1013.4 |
| 20260506132953 | 53 | 151 | 3.5 | 6.1 | 0.00 | 0.00 | 0.00 | 51 | 1013.7 |
| 20260506132031 | 53 | 148 | 3.5 | 7.8 | 0.00 | 0.00 | 0.00 | 55 | 1013.7 |
| 20260506130948 | 53 | 129 | 5.2 | 7.8 | 0.00 | 0.00 | 0.00 | 54 | 1013.8 |
| 20260506125947 | 53 | 131 | 4.3 | 7.8 | 0.00 | 0.00 | 0.00 | 53 | 1013.9 |
| 20260506124945 | 53 | 124 | 3.5 | 7.8 | 0.00 | 0.00 | 0.00 | 55 | 1013.8 |
| 20260506123944 | 53 | 119 | 5.2 | 7.8 | 0.00 | 0.00 | 0.00 | 52 | 1013.8 |
| 20260506123001 | 52 | 117 | 5.2 | 9.6 | 0.00 | 0.00 | 0.00 | 52 | 1013.9 |
| 20260506121939 | 53 | 114 | 5.2 | 10.4 | 0.00 | 0.00 | 0.00 | 55 | 1014.0 |
| 20260506120936 | 53 | 107 | 3.5 | 6.1 | 0.00 | 0.00 | 0.00 | 57 | 1014.1 |
| 20260506115936 | 52 | 124 | 4.3 | 7.8 | 0.00 | 0.00 | 0.00 | 60 | 1014.2 |
| 20260506114934 | 51 | 115 | 6.1 | 10.4 | 0.00 | 0.00 | 0.00 | 61 | 1014.0 |
| 20260506113931 | 51 | 100 | 6.1 | 9.6 | 0.00 | 0.00 | 0.00 | 58 | 1013.8 |
| 20260506112929 | 51 | 100 | 6.1 | 9.6 | 0.00 | 0.00 | 0.00 | 58 | 1013.8 |
| 20260506111947 | 52 | 120 | 6.1 | 8.7 | 0.00 | 0.00 | 0.00 | 57 | 1013.7 |
| 20260506110925 | 53 | 109 | 6.1 | 9.6 | 0.00 | 0.00 | 0.00 | 55 | 1013.6 |
| 20260506105923 | 53 | 151 | 4.3 | 8.7 | 0.00 | 0.00 | 0.00 | 61 | 1013.6 |
| 20260506104921 | 53 | 124 | 6.1 | 9.6 | 0.00 | 0.00 | 0.00 | 60 | 1013.6 |
| 20260506103940 | 53 | 124 | 6.1 | 9.6 | 0.00 | 0.00 | 0.00 | 60 | 1013.6 |
| 20260506102917 | 53 | 121 | 7.0 | 11.3 | 0.00 | 0.00 | 0.00 | 63 | 1013.7 |
| 20260506101936 | 54 | 152 | 4.3 | 7.8 | 0.00 | 0.00 | 0.00 | 58 | 1013.6 |
| 20260506100933 | 53 | 124 | 5.2 | 9.6 | 0.00 | 0.00 | 0.00 | 57 | 1013.6 |
| 20260506095911 | 54 | 135 | 5.2 | 9.6 | 0.00 | 0.00 | 0.00 | 56 | 1013.6 |
| 20260506094909 | 55 | 143 | 3.5 | 7.8 | 0.00 | 0.00 | 0.00 | 52 | 1013.7 |
| 20260506093907 | 56 | 120 | 3.5 | 7.8 | 0.00 | 0.00 | 0.00 | 51 | 1013.7 |